H1 CPF 2 NER 2026 1 31 9 031 01 glonass129 H2 1106402 9129 37868 2026 1 31 0 0 0 2026 2 3 23 45 0 900 1 1 0 0 0 1 H9 10 0 61071 0.00000 0 -17328491.042 11522387.883 -14667807.024 10 0 61071 900.00000 0 -16083709.938 9994048.665 -17015633.237 10 0 61071 1800.00000 0 -14815250.310 8148009.353 -19031006.451 10 0 61071 2700.00000 0 -13582319.655 6013216.625 -20674539.489 10 0 61071 3600.00000 0 -12439029.419 3630487.254 -21914153.612 10 0 61071 4500.00000 0 -11432096.112 1051048.634 -22725712.363 10 0 61071 5400.00000 0 -10598877.761 -1665361.631 -23093493.612 10 0 61071 6300.00000 0 -9965829.188 -4452756.666 -23010490.641 10 0 61071 7200.00000 0 -9547441.234 -7241425.990 -22478536.934 10 0 61071 8100.00000 0 -9345707.696 -9960619.157 -21508253.279 10 0 61071 9000.00000 0 -9350140.847 -12541274.250 -20118819.552 10 0 61071 9900.00000 0 -9538332.630 -14918676.658 -18337577.262 10 0 61071 10800.00000 0 -9877035.294 -17034937.188 -16199472.290 10 0 61071 11700.00000 0 -10323713.138 -18841186.723 -13746350.482 10 0 61071 12600.00000 0 -10828497.289 -20299397.215 -11026121.489 10 0 61071 13500.00000 0 -11336458.750 -21383755.062 -8091808.704 10 0 61071 14400.00000 0 -11790101.991 -22081532.152 -5000505.053 10 0 61071 15300.00000 0 -12131972.729 -22393421.198 -1812256.011 10 0 61071 16200.00000 0 -12307269.399 -22333324.538 1411107.834 10 0 61071 17100.00000 0 -12266348.399 -21927608.332 4607165.790 10 0 61071 18000.00000 0 -11967018.264 -21213856.129 7714106.660 10 0 61071 18900.00000 0 -11376527.393 -20239176.117 10671910.395 10 0 61071 19800.00000 0 -10473163.056 -19058134.350 13423490.096 10 0 61071 20700.00000 0 -9247395.886 -17730401.002 15915773.780 10 0 61071 21600.00000 0 -7702522.868 -16318207.820 18100706.886 10 0 61071 22500.00000 0 -5854782.450 -14883721.997 19936158.207 10 0 61071 23400.00000 0 -3732936.770 -13486444.557 21386713.800 10 0 61071 24300.00000 0 -1377337.491 -12180739.812 22424345.505 10 0 61071 25200.00000 0 1161487.629 -11013596.858 23028942.795 10 0 61071 26100.00000 0 3824671.099 -10022714.528 23188698.801 10 0 61071 27000.00000 0 6547191.705 -9234988.161 22900343.612 10 0 61071 27900.00000 0 9260322.779 -8665460.389 22169220.181 10 0 61071 28800.00000 0 11894244.385 -8316779.595 21009200.491 10 0 61071 29700.00000 0 14380714.095 -8179189.301 19442442.071 10 0 61071 30600.00000 0 16655687.900 -8231050.207 17498987.489 10 0 61071 31500.00000 0 18661783.992 -8439874.871 15216212.113 10 0 61071 32400.00000 0 20350487.643 -8763833.685 12638128.224 10 0 61071 33300.00000 0 21684005.099 -9153670.925 9814556.411 10 0 61071 34200.00000 0 22636688.001 -9554951.904 6800178.131 10 0 61071 35100.00000 0 23195967.050 -9910547.559 3653486.127 10 0 61071 36000.00000 0 23362753.632 -10163251.822 435652.036 10 0 61071 36900.00000 0 23151290.336 -10258420.416 -2790666.992 10 0 61071 37800.00000 0 22588454.610 -10146517.826 -5962558.958 10 0 61071 38700.00000 0 21712543.384 -9785462.199 -9018099.785 10 0 61071 39600.00000 0 20571589.047 -9142665.832 -11897582.153 10 0 61071 40500.00000 0 19221277.771 -8196681.586 -14544704.289 10 0 61071 41400.00000 0 17722558.786 -6938382.179 -16907693.189 10 0 61071 42300.00000 0 16139046.908 -5371619.500 -18940338.026 10 0 61071 43200.00000 0 14534329.793 -3513333.585 -20602911.550 10 0 61071 44100.00000 0 12969295.559 -1393104.848 -21862959.858 10 0 61071 45000.00000 0 11499595.395 947832.552 -22695943.961 10 0 61071 45900.00000 0 10173349.676 3458075.005 -23085720.094 10 0 61071 46800.00000 0 9029195.110 6077968.692 -23024849.402 10 0 61071 47700.00000 0 8094755.328 8741882.394 -22514731.490 10 0 61071 48600.00000 0 7385598.636 11380737.608 -21565560.241 10 0 61071 49500.00000 0 6904725.239 13924688.991 -20196104.082 10 0 61071 50400.00000 0 6642603.374 16305842.160 -18433316.585 10 0 61071 51300.00000 0 6577750.030 18460894.838 -16311786.738 10 0 61071 52200.00000 0 6677828.794 20333591.164 -13873041.315 10 0 61071 53100.00000 0 6901215.481 21876887.398 -11164714.699 10 0 61071 54000.00000 0 7198962.663 23054740.052 -8239603.856 10 0 61071 54900.00000 0 7517077.831 23843443.829 -5154628.183 10 0 61071 55800.00000 0 7799017.265 24232465.994 -1969715.511 10 0 61071 56700.00000 0 7988289.286 24224745.202 1253363.412 10 0 61071 57600.00000 0 8031056.694 23836445.196 4452189.115 10 0 61071 58500.00000 0 7878629.015 23096176.417 7564893.282 10 0 61071 59400.00000 0 7489740.358 22043720.388 10531341.757 10 0 61071 60300.00000 0 6832518.258 20728311.865 13294278.922 10 0 61071 61200.00000 0 5886062.053 19206551.450 15800412.824 10 0 61071 62100.00000 0 4641565.734 17540035.906 18001421.936 10 0 61071 63000.00000 0 3102939.003 15792804.312 19854866.154 10 0 61071 63900.00000 0 1286900.762 14028705.150 21324986.492 10 0 61071 64800.00000 0 -777459.413 12308792.085 22383380.000 10 0 61071 65700.00000 0 -3049634.889 10688854.666 23009538.517 10 0 61071 66600.00000 0 -5479133.105 9217184.564 23191241.987 10 0 61071 67500.00000 0 -8007327.443 7932668.372 22924799.354 10 0 61071 68400.00000 0 -10569656.127 6863284.912 22215132.218 10 0 61071 69300.00000 0 -13098080.160 6025068.869 21075698.820 10 0 61071 70200.00000 0 -15523701.413 5421583.938 19528258.330 10 0 61071 71100.00000 0 -17779434.884 5043928.140 17602477.927 10 0 61071 72000.00000 0 -19802626.031 4871272.402 15335387.836 10 0 61071 72900.00000 0 -21537505.377 4871911.560 12770692.288 10 0 61071 73800.00000 0 -22937378.252 5004785.501 9957947.177 10 0 61071 74700.00000 0 -23966457.438 5221408.202 6951618.143 10 0 61071 75600.00000 0 -24601260.465 5468124.658 3810035.645 10 0 61071 76500.00000 0 -24831510.841 5688601.018 594266.216 10 0 61071 77400.00000 0 -24660502.927 5826442.441 -2633078.399 10 0 61071 78300.00000 0 -24104912.686 5827826.742 -5809070.595 10 0 61071 79200.00000 0 -23194060.210 5644040.295 -8871709.653 10 0 61071 80100.00000 0 -21968653.620 5233806.078 -11761151.847 10 0 61071 81000.00000 0 -20479066.563 4565302.102 -14420901.779 10 0 61071 81900.00000 0 -18783222.063 3617781.430 -16798939.394 10 0 61071 82800.00000 0 -16944172.794 2382722.091 -18848758.348 10 0 61071 83700.00000 0 -15027481.256 864455.490 -20530293.405 10 0 61071 84600.00000 0 -13098512.017 -919755.380 -21810717.120 10 0 61071 85500.00000 0 -11219751.946 -2940192.612 -22665089.084 10 0 61072 0.00000 0 -9448272.999 -5155695.349 -23076844.450 10 0 61072 900.00000 0 -7833444.490 -7515165.639 -23038112.341 10 0 61072 1800.00000 0 -6414993.832 -9959501.288 -22549857.968 10 0 61072 2700.00000 0 -5221493.720 -12423877.569 -21621847.384 10 0 61072 3600.00000 0 -4269340.447 -14840278.092 -20272436.237 10 0 61072 4500.00000 0 -3562263.340 -17140168.867 -18528188.511 10 0 61072 5400.00000 0 -3091383.338 -19257202.680 -16423334.361 10 0 61072 6300.00000 0 -2835815.104 -21129840.310 -13999079.364 10 0 61072 7200.00000 0 -2763783.975 -22703779.161 -11302780.380 10 0 61072 8100.00000 0 -2834207.402 -23934088.662 -8387005.639 10 0 61072 9000.00000 0 -2998671.244 -24786964.649 -5308498.680 10 0 61072 9900.00000 0 -3203715.185 -25241031.381 -2127067.395 10 0 61072 10800.00000 0 -3393329.097 -25288139.223 1095579.575 10 0 61072 11700.00000 0 -3511554.118 -24933627.247 4297026.215 10 0 61072 12600.00000 0 -3505078.524 -24196042.381 7415349.308 10 0 61072 13500.00000 0 -3325719.458 -23106329.171 10390302.781 10 0 61072 14400.00000 0 -2932687.003 -21706525.765 13164464.475 10 0 61072 15300.00000 0 -2294536.610 -20048021.776 15684324.579 10 0 61072 16200.00000 0 -1390729.181 -18189450.981 17901296.611 10 0 61072 17100.00000 0 -212734.429 -16194306.258 19772633.434 10 0 61072 18000.00000 0 1235368.073 -14128374.880 21262232.682 10 0 61072 18900.00000 0 2936815.381 -12057099.026 22341318.039 10 0 61072 19800.00000 0 4862619.130 -10042969.044 22988984.861 10 0 61072 20700.00000 0 6972537.489 -8143055.414 23192600.794 10 0 61072 21600.00000 0 9216523.097 -6406779.709 22948054.252 10 0 61072 22500.00000 0 11536589.674 -4874015.268 22259845.852 10 0 61072 23400.00000 0 13869022.960 -3573595.247 21141020.233 10 0 61072 24300.00000 0 16146847.361 -2522289.514 19612938.120 10 0 61072 25200.00000 0 18302448.682 -1724293.119 17704890.983 10 0 61072 26100.00000 0 20270246.189 -1171248.504 15453563.341 10 0 61072 27000.00000 0 21989304.214 -842801.821 12902350.530 10 0 61072 27900.00000 0 23405774.994 -707671.689 10100542.563 10 0 61072 28800.00000 0 24475070.184 -725187.130 7102387.714 10 0 61072 29700.00000 0 25163668.888 -847231.350 3966052.208 10 0 61072 30600.00000 0 25450484.297 -1020510.284 752495.140 10 0 61072 31500.00000 0 25327729.013 -1189050.187 -2475719.835 10 0 61072 32400.00000 0 24801239.969 -1296817.972 -5655652.471 10 0 61072 33300.00000 0 23890246.729 -1290351.766 -8725228.541 10 0 61072 34200.00000 0 22626590.845 -1121287.978 -11624471.103 10 0 61072 35100.00000 0 21053427.777 -748674.923 -14296694.287 10 0 61072 36000.00000 0 19223465.479 -140971.843 -16689634.027 10 0 61072 36900.00000 0 17196814.097 722354.510 -18756491.321 10 0 61072 37800.00000 0 15038538.289 1849706.166 -20456865.592 10 0 61072 38700.00000 0 12816016.615 3236753.013 -21757558.263 10 0 61072 39600.00000 0 10596220.815 4866381.749 -22633229.630 10 0 61072 40500.00000 0 8443030.966 6709197.838 -23066895.606 10 0 61072 41400.00000 0 6414700.599 8724559.558 -23050254.595 10 0 61072 42300.00000 0 4561578.998 10862100.238 -22583838.553 10 0 61072 43200.00000 0 2924186.177 13063673.765 -21676986.289 10 0 61072 44100.00000 0 1531720.459 15265640.544 -20347640.772 10 0 61072 45000.00000 0 401059.544 17401396.697 -18621976.001 10 0 61072 45900.00000 0 -463705.509 19404039.370 -16533862.419 10 0 61072 46800.00000 0 -1071186.951 21209055.736 -14124183.051 10 0 61072 47700.00000 0 -1442074.594 22756922.708 -11440015.431 10 0 61072 48600.00000 0 -1607997.580 23995508.866 -8533696.834 10 0 61072 49500.00000 0 -1609924.963 24882178.957 -5461792.368 10 0 61072 50400.00000 0 -1496175.464 25385514.342 -2283987.095 10 0 61072 51300.00000 0 -1320122.629 25486579.384 938075.561 10 0 61072 52200.00000 0 -1137693.722 25179683.067 4141986.310 10 0 61072 53100.00000 0 -1004768.569 24472606.321 7265770.355 10 0 61072 54000.00000 0 -974587.976 23386287.796 10249073.025 10 0 61072 54900.00000 0 -1095280.182 21953983.026 13034308.826 10 0 61072 55800.00000 0 -1407608.343 20219933.360 15567753.158 10 0 61072 56700.00000 0 -1943032.314 18237600.701 17800557.459 10 0 61072 57600.00000 0 -2722164.842 16067541.330 19689670.193 10 0 61072 58500.00000 0 -3753685.831 13775006.276 21198647.994 10 0 61072 59400.00000 0 -5033759.729 11427366.271 22298343.256 10 0 61072 60300.00000 0 -6545980.662 9091466.019 22967456.604 10 0 61072 61200.00000 0 -8261848.704 6831015.125 23192944.759 10 0 61072 62100.00000 0 -10141759.306 4704121.435 22970276.553 10 0 61072 63000.00000 0 -12136467.260 2761066.857 22303532.101 10 0 61072 63900.00000 0 -14188967.260 1042416.255 21205342.414 10 0 61072 64800.00000 0 -16236715.982 -422463.195 19696669.215 10 0 61072 65700.00000 0 -18214106.280 -1616410.993 17806427.178 10 0 61072 66600.00000 0 -20055093.046 -2534968.278 15570953.512 10 0 61072 67500.00000 0 -21695863.139 -3186337.173 13033332.583 10 0 61072 68400.00000 0 -23077438.957 -3590804.865 10242586.047 10 0 61072 69300.00000 0 -24148106.745 -3779654.975 7252742.003 10 0 61072 70200.00000 0 -24865566.960 -3793610.532 4121799.393 10 0 61072 71100.00000 0 -25198714.611 -3680873.012 910606.645 10 0 61072 72000.00000 0 -25128972.280 -3494839.686 -2318324.007 10 0 61072 72900.00000 0 -24651116.863 -3291596.023 -5502043.062 10 0 61072 73800.00000 0 -23773562.338 -3127290.302 -8578406.184 10 0 61072 74700.00000 0 -22518084.049 -3055503.529 -11487306.585 10 0 61072 75600.00000 0 -20918994.071 -3124728.541 -14171871.191 10 0 61072 76500.00000 0 -19021801.106 -3376068.051 -16579595.016 10 0 61072 77400.00000 0 -16881410.922 -3841252.205 -18663389.198 10 0 61072 78300.00000 0 -14559943.409 -4541062.456 -20382520.225 10 0 61072 79200.00000 0 -12124259.055 -5484230.998 -21703420.284 10 0 61072 80100.00000 0 -9643300.222 -6666864.169 -22600351.690 10 0 61072 81000.00000 0 -7185360.421 -8072415.374 -23055911.791 10 0 61072 81900.00000 0 -4815397.563 -9672209.148 -23061368.396 10 0 61072 82800.00000 0 -2592504.828 -11426494.022 -22616819.630 10 0 61072 83700.00000 0 -567645.513 -13285979.057 -21731175.996 10 0 61072 84600.00000 0 1218253.734 -15193788.214 -20421966.279 10 0 61072 85500.00000 0 2735772.659 -17087749.007 -18714972.617 10 0 61073 0.00000 0 3967970.611 -18902917.774 -16643703.776 10 0 61073 900.00000 0 4910825.865 -20574235.379 -14248717.470 10 0 61073 1800.00000 0 5573124.433 -22039198.730 -11576809.547 10 0 61073 2700.00000 0 5975808.859 -23240439.082 -8680083.718 10 0 61073 3600.00000 0 6150816.381 -24128096.938 -5614924.016 10 0 61073 4500.00000 0 6139459.376 -24661895.912 -2440890.057 10 0 61073 5400.00000 0 5990419.083 -24812830.002 780442.522 10 0 61073 6300.00000 0 5757439.238 -24564395.440 3986673.636 10 0 61073 7200.00000 0 5496818.168 -23913317.620 7115779.293 10 0 61073 8100.00000 0 5264805.468 -22869744.763 10107298.480 10 0 61073 9000.00000 0 5115012.640 -21456901.985 12903484.491 10 0 61073 9900.00000 0 5095945.729 -19710221.564 15450399.897 10 0 61073 10800.00000 0 5248762.374 -17675986.354 17698935.811 10 0 61073 11700.00000 0 5605345.996 -15409542.761 19605737.845 10 0 61073 12600.00000 0 6186776.548 -12973156.806 21134022.910 10 0 61073 13500.00000 0 7002260.949 -10433600.749 22254273.118 10 0 61073 14400.00000 0 8048567.626 -7859568.281 22944795.081 10 0 61073 15300.00000 0 9309989.230 -5319022.953 23192135.033 10 0 61073 16200.00000 0 10758836.364 -2876587.054 22991342.408 10 0 61073 17100.00000 0 12356443.747 -591076.602 22346076.764 10 0 61073 18000.00000 0 14054649.504 1486717.501 21268555.235 10 0 61073 18900.00000 0 15797688.912 3315911.706 19779340.114 10 0 61073 19800.00000 0 17524426.725 4866998.133 17906968.689 10 0 61073 20700.00000 0 19170837.731 6122838.010 15687430.106 10 0 61073 21600.00000 0 20672634.208 7079138.225 13163496.820 10 0 61073 22500.00000 0 21967931.884 7744390.012 10383920.981 10 0 61073 23400.00000 0 22999843.224 8139270.833 7402509.112 10 0 61073 24300.00000 0 23718888.765 8295533.045 4277091.196 10 0 61073 25200.00000 0 24085123.733 8254424.805 1068403.037 10 0 61073 26100.00000 0 24069888.166 8064708.893 -2161096.773 10 0 61073 27000.00000 0 23657104.045 7780362.921 -5348451.919 10 0 61073 27900.00000 0 22844061.662 7458058.791 -8431450.550 10 0 61073 28800.00000 0 21641659.096 7154529.421 -11349858.689 10 0 61073 29700.00000 0 20074082.095 6923936.368 -14046618.725 10 0 61073 30600.00000 0 18177935.895 6815352.439 -16468987.338 10 0 61073 31500.00000 0 16000864.393 6870468.771 -18569588.306 10 0 61073 32400.00000 0 13599714.463 7121626.313 -20307357.547 10 0 61073 33300.00000 0 11038322.994 7590257.585 -21648360.237 10 0 61073 34200.00000 0 8385020.659 8285806.616 -22566462.778 10 0 61073 35100.00000 0 5709958.505 9205174.108 -23043845.812 10 0 61073 36000.00000 0 3082370.815 10332711.848 -23071348.163 10 0 61073 36900.00000 0 567890.120 11640766.495 -22648635.392 10 0 61073 37800.00000 0 -1773972.569 13090749.042 -21784190.572 10 0 61073 38700.00000 0 -3892076.900 14634683.685 -20495128.717 10 0 61073 39600.00000 0 -5745538.333 16217169.304 -18806840.025 10 0 61073 40500.00000 0 -7305172.117 17777669.414 -16752470.607 10 0 61073 41400.00000 0 -8554438.092 19253032.792 -14372252.564 10 0 61073 42300.00000 0 -9489849.796 20580137.593 -11712698.222 10 0 61073 43200.00000 0 -10120834.296 21698547.154 -8825675.843 10 0 61073 44100.00000 0 -10469052.350 22553065.746 -5767386.169 10 0 61073 45000.00000 0 -10567211.071 23096087.395 -2597260.873 10 0 61073 45900.00000 0 -10457422.304 23289640.175 623194.914 10 0 61073 46800.00000 0 -10189178.431 23107041.675 3831593.200 10 0 61073 47700.00000 0 -9817032.703 22534098.002 6965863.803 10 0 61073 48600.00000 0 -9398082.777 21569797.942 9965442.440 10 0 61073 49500.00000 0 -8989363.541 20226474.935 12772424.290 10 0 61073 50400.00000 0 -8645258.308 18529431.462 15332662.142 10 0 61073 51300.00000 0 -8415036.017 16516042.296 17596789.769 10 0 61073 52200.00000 0 -8340616.335 14234374.060 19521152.764 10 0 61073 53100.00000 0 -8454654.800 11741377.871 21068630.977 10 0 61073 54000.00000 0 -8779026.869 9100728.708 22209338.663 10 0 61073 54900.00000 0 -9323773.380 6380399.092 22921190.553 10 0 61073 55800.00000 0 -10086551.304 3650065.096 23190324.168 10 0 61073 56700.00000 0 -11052613.269 978449.357 23011370.910 10 0 61073 57600.00000 0 -12195318.079 -1569291.675 22387570.685 10 0 61073 58500.00000 0 -13477153.008 -3934030.501 21330727.133 10 0 61073 59400.00000 0 -14851227.780 -6064881.271 19861002.964 10 0 61073 60300.00000 0 -16263180.783 -7921071.946 18006557.370 10 0 61073 61200.00000 0 -17653420.668 -9473398.626 15803030.191 10 0 61073 62100.00000 0 -18959612.076 -10705201.316 13292880.220 10 0 61073 63000.00000 0 -20119303.223 -11612819.546 10524587.898 10 0 61073 63900.00000 0 -21072586.125 -12205507.420 7551735.586 10 0 61073 64800.00000 0 -21764677.690 -12504810.113 4431981.413 10 0 61073 65700.00000 0 -22148312.101 -12543426.471 1225945.425 10 0 61073 66600.00000 0 -22185841.764 -12363604.416 -2003970.753 10 0 61073 67500.00000 0 -21850955.615 -12015136.203 -5194807.436 10 0 61073 68400.00000 0 -21129939.151 -11553038.286 -8284288.792 10 0 61073 69300.00000 0 -20022419.837 -11035014.803 -11212057.211 10 0 61073 70200.00000 0 -18541563.379 -10518813.621 -13920874.057 10 0 61073 71100.00000 0 -16713710.090 -10059589.089 -16357761.069 10 0 61073 72000.00000 0 -14577464.829 -9707385.757 -18475057.802 10 0 61073 72900.00000 0 -12182277.843 -9504852.272 -20231372.382 10 0 61073 73800.00000 0 -9586575.988 -9485284.692 -21592405.264 10 0 61073 74700.00000 0 -6855523.332 -9671084.102 -22531628.639 10 0 61073 75600.00000 0 -4058506.128 -10072695.173 -23030807.503 10 0 61073 76500.00000 0 -1266448.797 -10688071.247 -23080352.096 10 0 61073 77400.00000 0 1450925.456 -11502688.524 -22679495.184 10 0 61073 78300.00000 0 4027773.844 -12490108.008 -21836291.610 10 0 61073 79200.00000 0 6404640.598 -13613060.225 -20567441.313 10 0 61073 80100.00000 0 8530686.479 -14825005.271 -18897940.831 10 0 61073 81000.00000 0 10365549.075 -16072100.593 -16860571.737 10 0 61073 81900.00000 0 11880758.045 -17295491.730 -14495237.753 10 0 61073 82800.00000 0 13060648.709 -18433827.958 -11848165.213 10 0 61073 83700.00000 0 13902738.961 -19425895.696 -8970984.081 10 0 61073 84600.00000 0 14417557.316 -20213258.216 -5919708.804 10 0 61073 85500.00000 0 14627932.959 -20742790.489 -2753640.018 10 0 61074 0.00000 0 14567781.104 -20969003.132 465790.475 10 0 61074 900.00000 0 14280437.675 -20856058.890 3676210.411 10 0 61074 1800.00000 0 13816615.818 -20379398.194 6815506.058 10 0 61074 2700.00000 0 13232071.572 -19526907.648 9823012.586 10 0 61074 3600.00000 0 12585077.564 -18299583.708 12640669.513 10 0 61074 4500.00000 0 11933810.713 -16711665.331 15214122.015 10 0 61074 5400.00000 0 11333762.747 -14790230.888 17493748.350 10 0 61074 6300.00000 0 10835280.742 -12574276.387 19435595.576 10 0 61074 7200.00000 0 10481339.097 -10113312.901 21002207.600 10 0 61074 8100.00000 0 10305634.532 -7465540.221 22163331.575 10 0 61074 9000.00000 0 10331082.413 -4695670.577 22896490.754 10 0 61074 9900.00000 0 10568776.376 -1872490.144 23187414.013 10 0 61074 10800.00000 0 11017454.543 933743.545 23030314.478 10 0 61074 11700.00000 0 11663495.226 3653963.478 22428011.877 10 0 61074 12600.00000 0 12481443.732 6222906.893 21391895.598 10 0 61074 13500.00000 0 13435050.279 8581574.930 19941727.808 10 0 61074 14400.00000 0 14478778.212 10679437.974 18105288.477 10 0 61074 15300.00000 0 15559722.056 12476296.008 15917866.856 10 0 61074 16200.00000 0 16619857.664 13943716.767 13421606.657 10 0 61074 17100.00000 0 17598532.195 15065991.158 10664715.049 10 0 61074 18000.00000 0 18435090.697 15840564.754 7700548.512 10 0 61074 18900.00000 0 19071529.340 16277925.765 4586591.447 10 0 61074 19800.00000 0 19455062.994 16400952.457 1383346.109 10 0 61074 20700.00000 0 19540497.392 16243745.951 -1846844.992 10 0 61074 21600.00000 0 19292303.418 15849996.511 -5041021.051 10 0 61074 22500.00000 0 18686302.936 15270951.825 -8136844.524 10 0 61074 23400.00000 0 17710891.684 14563073.435 -11073836.426 10 0 61074 24300.00000 0 16367744.314 13785481.519 -13794579.281 10 0 61074 25200.00000 0 14671968.808 12997297.861 -16245861.963 10 0 61074 26100.00000 0 12651701.416 12255001.703 -18379741.770 10 0 61074 27000.00000 0 10347157.504 11609912.805 -20154500.877 10 0 61074 27900.00000 0 7809177.409 11105910.619 -21535476.756 10 0 61074 28800.00000 0 5097328.392 10777488.113 -22495748.998 10 0 61074 29700.00000 0 2277642.899 10648224.047 -23016668.419 10 0 61074 30600.00000 0 -579911.023 10729739.089 -23088217.946 10 0 61074 31500.00000 0 -3404120.086 11021179.909 -22709198.550 10 0 61074 32400.00000 0 -6125263.216 11509252.353 -21887237.489 10 0 61074 33300.00000 0 -8677781.002 12168800.924 -20638619.876 10 0 61074 34200.00000 0 -11002765.371 12963908.301 -18987948.379 10 0 61074 35100.00000 0 -13050166.034 13849466.358 -16967639.381 10 0 61074 36000.00000 0 -14780622.851 14773150.262 -14617267.159 10 0 61074 36900.00000 0 -16166849.570 15677710.323 -11982770.635 10 0 61074 37800.00000 0 -17194513.826 16503483.295 -9115539.754 10 0 61074 38700.00000 0 -17862579.835 17191016.079 -6071400.723 10 0 61074 39600.00000 0 -18183102.905 17683690.658 -2909521.012 10 0 61074 40500.00000 0 -18180487.925 17930239.734 308743.763 10 0 61074 41400.00000 0 -17890246.152 17887047.801 3521038.320 10 0 61074 42300.00000 0 -17357305.216 17520141.955 6665208.476 10 0 61074 43200.00000 0 -16633945.297 16806790.205 9680491.497 10 0 61074 44100.00000 0 -15777449.265 15736641.710 12508673.976 10 0 61074 45000.00000 0 -14847565.680 14312362.525 15095196.259 10 0 61074 45900.00000 0 -13903890.538 12549741.252 17390183.874 10 0 61074 46800.00000 0 -13003276.252 10477260.592 19349388.075 10 0 61074 47700.00000 0 -12197374.696 8135152.379 20935019.432 10 0 61074 48600.00000 0 -11530415.235 5573974.370 22116460.402 10 0 61074 49500.00000 0 -11037308.816 2852766.075 22870844.902 10 0 61074 50400.00000 0 -10742155.882 36857.734 23183494.984 10 0 61074 51300.00000 0 -10657219.571 -2804579.649 23048206.924 10 0 61074 52200.00000 0 -10782406.918 -5601144.867 22467381.275 10 0 61074 53100.00000 0 -11105280.387 -8283872.528 21451993.704 10 0 61074 54000.00000 0 -11601600.647 -10787846.799 20021405.868 10 0 61074 54900.00000 0 -12236379.883 -13054656.647 18203018.050 10 0 61074 55800.00000 0 -12965403.934 -15034591.954 16031767.952 10 0 61074 56700.00000 0 -13737161.875 -16688489.767 13549482.781 10 0 61074 57600.00000 0 -14495104.278 -17989153.425 10804094.589 10 0 61074 58500.00000 0 -15180136.879 -18922284.274 7848731.775 10 0 61074 59400.00000 0 -15733245.572 -19486885.426 4740702.497 10 0 61074 60300.00000 0 -16098142.018 -19695118.773 1540388.455 10 0 61074 61200.00000 0 -16223817.173 -19571619.458 -1689929.937 10 0 61074 62100.00000 0 -16066892.920 -19152295.113 -4887293.909 10 0 61074 63000.00000 0 -15593669.685 -18482659.561 -7989307.505 10 0 61074 63900.00000 0 -14781780.282 -17615771.018 -10935373.774 10 0 61074 64800.00000 0 -13621376.705 -16609862.461 -13667899.840 10 0 61074 65700.00000 0 -12115796.451 -15525765.534 -16133445.115 10 0 61074 66600.00000 0 -10281677.425 -14424238.785 -18283787.885 10 0 61074 67500.00000 0 -8148514.423 -13363315.331 -20076887.351 10 0 61074 68400.00000 0 -5757674.387 -12395784.383 -21477720.571 10 0 61074 69300.00000 0 -3160911.297 -11566915.084 -22458976.607 10 0 61074 70200.00000 0 -418443.150 -10912520.438 -23001593.599 10 0 61074 71100.00000 0 2403327.673 -10457444.026 -23095128.050 10 0 61074 72000.00000 0 5234354.070 -10214533.555 -22737949.441 10 0 61074 72900.00000 0 8003636.562 -10184143.971 -21937257.194 10 0 61074 73800.00000 0 10641954.783 -10354189.719 -20708920.837 10 0 61074 74700.00000 0 13084523.364 -10700742.007 -19077147.950 10 0 61074 75600.00000 0 15273461.306 -11189143.533 -17073988.082 10 0 61074 76500.00000 0 17159972.383 -11775591.074 -14738684.018 10 0 61074 77400.00000 0 18706146.920 -12409116.701 -12116884.825 10 0 61074 78300.00000 0 19886311.807 -13033881.802 -9259737.630 10 0 61074 79200.00000 0 20687875.069 -13591685.363 -6222877.282 10 0 61074 80100.00000 0 21111632.805 -14024579.525 -3065334.724 10 0 61074 81000.00000 0 21171529.001 -14277481.615 151613.832 10 0 61074 81900.00000 0 20893881.576 -14300672.693 3365634.199 10 0 61074 82800.00000 0 20316109.965 -14052078.094 6514534.908 10 0 61074 83700.00000 0 19485019.963 -13499235.151 9537458.558 10 0 61074 84600.00000 0 18454719.246 -12620866.763 12376041.756 10 0 61074 85500.00000 0 17284251.678 -11407996.151 14975522.591 99